Weather History for KBCE - May, 2013

Change the Weather History Date:

Saturday, May 18, 2013

  Actual Average Record
Temperature  
Mean Temperature 47 °F -  
Max Temperature 61 °F 65 °F 79 °F (2008)
Min Temperature 33 °F 32 °F 13 °F (1977)
Degree Days  
Heating Degree Days 18    
Moisture  
Dew Point 29 °F    
Average Humidity 54    
Maximum Humidity 89    
Minimum Humidity 22    
Precipitation  
Precipitation 0.00 in - - ()
Sea Level Pressure  
Sea Level Pressure 29.86 in    
Wind  
Wind Speed 7 mph (WNW)    
Max Wind Speed 20 mph    
Max Gust Speed 30 mph    
Visibility 10 miles    
Events      
Averages and records for this station are not official NWS values.
T = Trace of Precipitation, MM = Missing Value Source: NWS Daily Summary

Daily Weather History Graph

Daily Weather History Graph

Search for Another Location

Airport or City:

Trip Planner

Search our weather history database for the weather conditions in past years. The results will help you decide how hot, cold, wet, or windy it might be!

Date:

Astronomy

May. 18, 2013 Rise Set
Actual Time 6:16 AM MDT 8:34 PM MDT
Civil Twilight 5:46 AM MDT 9:04 PM MDT
Nautical Twilight 5:10 AM MDT 9:40 PM MDT
Astronomical Twilight 4:30 AM MDT 10:20 PM MDT
Moon 1:48 PM MDT (5/18) 2:02 AM MDT (5/18)
Length of Visible Light 15h 17m
Length of Day
14h 18m
First Quarter, 56% of the Moon is Illuminated
May 18
First Quarter
May 24
Full
May 31
Last Quarter
Jun 8
New
Jun 16
First Quarter

Hourly Weather History & Observations

Time (MDT) Temp. Windchill Dew Point Humidity Pressure Visibility Wind Dir Wind Speed Gust Speed Precip Events Conditions
12:53 AM 43.0 °F 39.5 °F 33.1 °F 68% 29.81 in 10.0 mi WNW 5.8 mph - 0.00 in   Clear
1:53 AM 39.0 °F 35.7 °F 32.0 °F 76% 29.84 in 10.0 mi WSW 4.6 mph - N/A   Clear
2:53 AM 39.0 °F - 33.1 °F 79% 29.85 in 10.0 mi Calm Calm - N/A   Clear
3:53 AM 39.0 °F 33.4 °F 33.1 °F 79% 29.86 in 10.0 mi NW 8.1 mph - N/A   Clear
4:53 AM 37.9 °F 35.5 °F 32.0 °F 79% 29.87 in 10.0 mi WNW 3.5 mph - N/A   Clear
5:53 AM 33.1 °F - 30.0 °F 89% 29.89 in 10.0 mi Calm Calm - N/A   Partly Cloudy
6:53 AM 37.0 °F 34.5 °F 32.0 °F 82% 29.87 in 10.0 mi NNW 3.5 mph - N/A   Mostly Cloudy
7:53 AM 39.0 °F - 34.0 °F 82% 29.89 in 10.0 mi Calm Calm - N/A   Clear
8:53 AM 48.9 °F - 34.0 °F 56% 29.86 in 10.0 mi Variable 3.5 mph - N/A   Clear
9:53 AM 53.1 °F - 30.0 °F 41% 29.85 in 10.0 mi WNW 11.5 mph - N/A   Clear
10:53 AM 55.0 °F - 26.1 °F 33% 29.85 in 10.0 mi NW 10.4 mph 19.6 mph N/A   Partly Cloudy
11:53 AM 57.9 °F - 24.1 °F 27% 29.83 in 10.0 mi WNW 17.3 mph 27.6 mph N/A   Scattered Clouds
1:53 PM 60.1 °F - 25.0 °F 26% 29.84 in 10.0 mi NW 19.6 mph 28.8 mph N/A   Clear
2:53 PM 61.0 °F - 21.9 °F 22% 29.83 in 10.0 mi NW 13.8 mph 23.0 mph N/A   Partly Cloudy
4:53 PM 57.9 °F - 23.0 °F 26% 29.85 in 10.0 mi WNW 19.6 mph 29.9 mph N/A   Clear
5:53 PM 55.0 °F - 21.0 °F 27% 29.88 in 10.0 mi WNW 13.8 mph 21.9 mph N/A   Scattered Clouds
6:53 PM 55.0 °F - 27.0 °F 34% 29.87 in 10.0 mi NW 17.3 mph 24.2 mph N/A   Clear
8:53 PM 46.9 °F - 28.0 °F 48% 29.88 in 10.0 mi NW 11.5 mph 21.9 mph N/A   Scattered Clouds
9:53 PM 44.1 °F 39.5 °F 28.0 °F 53% 29.89 in 10.0 mi WNW 8.1 mph - N/A   Clear
10:53 PM 43.0 °F 37.2 °F 30.0 °F 60% 29.89 in 10.0 mi WNW 10.4 mph - N/A   Partly Cloudy
11:53 PM 44.1 °F 41.5 °F 28.9 °F 55% 29.87 in 10.0 mi WNW 4.6 mph - N/A   Overcast